[[{"header":{"parameterUnit":"m.s-1","parameterCategory":1,"la1":30.2991,"la2":30.254,"lo1":-89.0895,"lo2":-89.0444,"dy":0.0017,"dx":0.0017,"nx":28,"ny":28,"refTime":"2026-02-13T09:00:00:Z","depth":0,"parameterNumber":2,"parameterNumberName":"U-component_of_WINDS"},"data":[0,0,0,0,0,0,0,0,0,0,0,0,0,0,0,0,0,0,0,0,0,0,0,0,0,0,0,0,0,0,0,0,0,0,0,0,0,0,0,0,0,0,0,0,0,0,0,0,0,0,0,0,0,0,0,0,0,0,-3.8142,-3.8144,0,-3.8297,-3.8299,-3.8301,-3.8407,-3.8408,-3.8409,-3.841,-3.8561,-3.8565,-3.8568,0,0,0,0,0,0,0,0,0,0,0,0,0,-3.7931,-3.7934,-3.8142,-3.8144,-3.8146,-3.8297,-3.8299,-3.8301,-3.8407,-3.8408,-3.8409,-3.841,-3.856,-3.8564,-3.8568,0,0,0,0,0,0,0,0,0,0,0,0,0,-3.8047,-3.7935,-3.8142,-3.8217,-3.8225,-3.8297,-3.8299,-3.8302,-3.8407,-3.8408,-3.8409,-3.841,-3.8559,-3.8564,-3.8569,-3.8575,0,0,-3.8584,-3.8586,0,0,0,0,0,0,0,0,-3.8041,-3.8055,-3.8204,-3.8212,-3.8221,-3.8334,-3.8281,-3.8393,-3.8407,-3.8338,-3.841,-3.8411,-3.8484,-3.8496,-3.8522,-3.8582,-3.8589,-3.8584,-3.8587,-3.8589,-3.8591,0,0,0,0,0,0,0,-3.8033,-3.8049,-3.8203,-3.8206,-3.8217,-3.8241,-3.8259,-3.8302,-3.8402,-3.8344,-3.8352,-3.8369,-3.8489,-3.8517,-3.8526,-3.8591,-3.8584,-3.8589,-3.8592,-3.8594,-3.8664,-3.8663,0,0,0,0,0,0,-3.8013,-3.8042,-3.8198,-3.8208,-3.8132,-3.8244,-3.8264,-3.8297,-3.8402,-3.8419,-3.8368,-3.8374,-3.8508,-3.852,-3.8532,-3.8545,-3.8589,-3.8594,-3.8597,-3.8665,-3.8664,-3.8663,0,0,0,0,0,0,-3.8009,-3.8027,-3.8192,-3.8127,-3.815,-3.8246,-3.8282,-3.8299,-3.8327,-3.8421,-3.8438,-3.8378,-3.8509,-3.8525,-3.8564,-3.8552,-3.8596,-3.8601,-3.8666,-3.8665,-3.8663,-3.8572,0,0,0,0,0,0,-3.8002,-3.8024,-3.8029,-3.8127,-3.8153,-3.8223,-3.8282,-3.8301,-3.8336,-3.8345,-3.8435,-3.8451,-3.8511,-3.8556,-3.8569,-3.856,-3.8605,-3.8668,-3.8666,-3.8664,-3.8577,-3.8568,-3.856,0,0,0,0,0,-3.7994,-3.7996,-3.8028,-3.8047,-3.8161,-3.8222,-3.8237,-3.8309,-3.8335,-3.8339,-3.8399,-3.8448,-3.8552,-3.8559,-3.8575,-3.8566,-3.8669,-3.8666,-3.8664,-3.858,-3.857,-3.856,0,0,0,0,0,0,-3.7891,-3.801,-3.8047,-3.8081,-3.8141,-3.824,-3.8248,-3.8295,-3.8347,-3.8353,-3.8438,-3.8458,-3.8487,-3.8532,-3.8537,-3.8578,-3.8616,-3.8617,-3.8548,-3.8538,-3.853,-3.8517,-3.8609,0,0,0,0,0,-3.7873,-3.7914,-3.8015,-3.8035,-3.8063,-3.815,-3.8179,-3.823,-3.8294,-3.8319,-3.8383,-3.8441,-3.8488,-3.8516,-3.8564,-3.8585,-3.8605,-3.8587,-3.8579,-3.8572,-3.857,-3.8583,-3.8576,-3.8655,-3.8655,-3.8655,0,0,-3.7834,-3.7904,-3.7925,-3.8016,-3.8068,-3.8107,-3.8171,-3.8209,-3.8238,-3.8325,-3.8365,-3.8414,-3.8485,-3.8515,-3.8531,-3.8553,-3.8553,-3.8568,-3.8562,-3.8564,-3.858,-3.8572,-3.8565,-3.8653,-3.8653,-3.8653,0,0,-3.7783,-3.7842,-3.7864,-3.7916,-3.7996,-3.8054,-3.8059,-3.8152,-3.8188,-3.8231,-3.8297,-3.8332,-3.841,-3.8458,-3.8492,-3.8461,-3.8507,-3.8474,-3.8429,-3.8441,-3.8435,-3.843,-3.8416,-3.8411,-3.8473,-3.8473,-3.8473,0,-3.7724,-3.7787,-3.7869,-3.7904,-3.7941,-3.8025,-3.8047,-3.8093,-3.8182,-3.8205,-3.8229,-3.8329,-3.8383,-3.8424,-3.8417,-3.8443,-3.845,-3.8463,-3.843,-3.8425,-3.8422,-3.841,-3.8405,-3.8468,-3.8469,-3.8469,-3.847,0,-3.771,-3.7752,-3.7761,-3.7848,-3.7887,-3.7915,-3.7998,-3.8028,-3.8076,-3.813,-3.8173,-3.8241,-3.8304,-3.8318,-3.8364,-3.8366,-3.8377,-3.8414,-3.8453,-3.8408,-3.8398,-3.8394,-3.8462,-3.8463,-3.8465,-3.8466,0,0,-3.7594,-3.7728,-3.7729,-3.777,-3.7865,-3.7898,-3.793,-3.7994,-3.8016,-3.8076,-3.8103,-3.8168,-3.8204,-3.8243,-3.8296,-3.8307,-3.8275,-3.8343,-3.8346,-3.8325,-3.8279,-3.8247,-3.8241,-3.8308,-3.8307,-3.8307,-3.8272,0,-3.7555,-3.7618,-3.7693,-3.7729,-3.7769,-3.785,-3.7878,-3.7937,-3.799,-3.803,-3.8088,-3.8132,-3.8177,-3.8201,-3.8216,-3.8276,-3.8266,-3.828,-3.833,-3.8331,-3.8306,-3.8236,-3.8203,-3.8166,-3.8269,-3.8268,-3.8268,0,-3.7517,-3.7575,-3.7615,-3.7707,-3.7727,-3.775,-3.7814,-3.7853,-3.7922,-3.796,-3.8004,-3.8062,-3.8098,-3.8135,-3.8184,-3.8192,-3.8217,-3.825,-3.8251,-3.8255,-3.8294,-3.8235,-3.8157,-3.8149,-3.8263,-3.8263,-3.8264,0,-3.7425,-3.7513,-3.7549,-3.7581,-3.769,-3.7704,-3.775,-3.7821,-3.7855,-3.7911,-3.7933,-3.7992,-3.8023,-3.8067,-3.8138,-3.8159,-3.8178,-3.8222,-3.8208,-3.8205,-3.8204,-3.8202,-3.8125,-3.8227,-3.8227,-3.8227,-3.8227,0,-3.7371,-3.7391,-3.7509,-3.753,-3.7555,-3.7642,-3.7664,-3.7717,-3.778,-3.7811,-3.7886,-3.7913,-3.8008,-3.8046,-3.8102,-3.8133,-3.8147,-3.8176,-3.819,-3.8168,-3.8163,-3.8182,-3.8185,-3.8226,-3.8226,-3.8226,-3.8226,0,-3.727,-3.735,-3.7393,-3.7494,-3.752,-3.7534,-3.7619,-3.7642,-3.7701,-3.774,-3.7754,-3.7845,-3.7894,-3.7971,-3.8042,-3.808,-3.8099,-3.8125,-3.8076,-3.8084,-3.8063,-3.8063,-3.7992,-3.7986,-3.8095,-3.8093,-3.8093,0,-3.7228,-3.7246,-3.735,-3.7377,-3.7421,-3.7465,-3.75,-3.7586,-3.762,-3.7701,-3.7714,-3.777,-3.7818,-3.7892,-3.7963,-3.8018,-3.8043,-3.8015,-3.8051,-3.8028,-3.8039,-3.8035,-3.8036,-3.8004,-3.8003,-3.8002,-3.8001,0,-3.7144,-3.7183,-3.7233,-3.7296,-3.7337,-3.739,-3.7447,-3.7465,-3.7563,-3.7597,-3.7649,-3.7687,-3.7762,-3.7815,-3.788,-3.7925,-3.7977,-3.799,-3.7988,-3.7963,-3.7932,-3.7945,-3.8048,-3.7989,-3.799,-3.7991,-3.7992,-3.7992,-3.7069,-3.7089,-3.7165,-3.7217,-3.727,-3.7322,-3.7348,-3.7411,-3.7457,-3.7525,-3.7574,-3.7623,-3.7692,-3.7786,-3.7829,-3.7867,-3.789,-3.7889,-3.7888,-3.7885,-3.7875,-3.793,-3.7879,-3.788,-3.788,-3.7881,-3.7881,0,-3.6986,-3.704,-3.7087,-3.7166,-3.7207,-3.7258,-3.7324,-3.7353,-3.7396,-3.7458,-3.7506,-3.7565,-3.7618,-3.7695,-3.7753,-3.7768,-3.7794,-3.778,-3.7777,-3.7786,-3.7853,-3.7847,-3.7758,-3.7758,-3.7758,-3.7758,-3.7758,-3.7758,-3.6947,-3.6982,-3.703,-3.7092,-3.7146,-3.7196,-3.7229,-3.7277,-3.7327,-3.7391,-3.7436,-3.7487,-3.7554,-3.7618,-3.7668,-3.7689,-3.7705,-3.7683,-3.7711,-3.7771,-3.7782,-3.7792,-3.7787,-3.7687,-3.7687,-3.7641,-3.764,-3.764]},{"header":{"parameterUnit":"m.s-1","parameterCategory":1,"la1":30.2991,"la2":30.254,"lo1":-89.0895,"lo2":-89.0444,"dy":0.0017,"dx":0.0017,"nx":28,"ny":28,"refTime":"2026-02-13T09:00:00:Z","depth":0,"parameterNumber":3,"parameterNumberName":"V-component_of_WINDS"},"data":[0,0,0,0,0,0,0,0,0,0,0,0,0,0,0,0,0,0,0,0,0,0,0,0,0,0,0,0,0,0,0,0,0,0,0,0,0,0,0,0,0,0,0,0,0,0,0,0,0,0,0,0,0,0,0,0,0,0,6.4764,6.4763,0,6.4665,6.4664,6.4662,6.4558,6.4557,6.4555,6.4554,6.4445,6.4443,6.4442,0,0,0,0,0,0,0,0,0,0,0,0,0,6.4859,6.4858,6.4764,6.4763,6.4762,6.4665,6.4663,6.4662,6.4559,6.4557,6.4555,6.4553,6.4445,6.4443,6.4442,0,0,0,0,0,0,0,0,0,0,0,0,0,6.4794,6.4857,6.4764,6.4698,6.4692,6.4665,6.4663,6.4662,6.4559,6.4557,6.4555,6.4553,6.4446,6.4444,6.4441,6.4469,0,0,6.4434,6.4433,0,0,0,0,0,0,0,0,6.4798,6.4791,6.4709,6.4703,6.4695,6.4622,6.4657,6.4597,6.4559,6.4609,6.4554,6.4552,6.4505,6.4498,6.4483,6.4464,6.446,6.4434,6.4432,6.4431,6.4431,0,0,0,0,0,0,0,6.4803,6.4795,6.4724,6.4708,6.47,6.4672,6.4661,6.4645,6.457,6.4605,6.4597,6.4587,6.4501,6.4486,6.448,6.4458,6.4434,6.4432,6.443,6.4429,6.4459,6.4461,0,0,0,0,0,0,6.4818,6.4799,6.4728,6.4721,6.4743,6.4672,6.4659,6.4647,6.457,6.4556,6.4589,6.4582,6.4491,6.4483,6.4476,6.4505,6.4431,6.4429,6.4428,6.4457,6.4459,6.4462,0,0,0,0,0,0,6.4821,6.4813,6.4732,6.4758,6.4746,6.4673,6.466,6.4647,6.4632,6.4558,6.4543,6.4588,6.4489,6.4479,6.4473,6.4499,6.4428,6.4426,6.4454,6.4457,6.446,6.4563,0,0,0,0,0,0,6.4824,6.4814,6.4825,6.4759,6.4745,6.4732,6.4662,6.4646,6.4629,6.462,6.4553,6.454,6.4487,6.4477,6.4471,6.4495,6.4424,6.4451,6.4455,6.4459,6.4557,6.4569,6.458,0,0,0,0,0,6.4828,6.4856,6.4826,6.4818,6.4758,6.4734,6.4725,6.4665,6.4632,6.4641,6.4594,6.4542,6.4498,6.4477,6.4469,6.4493,6.4449,6.4454,6.4459,6.4551,6.4567,6.458,0,0,0,0,0,0,6.4924,6.4846,6.4812,6.4821,6.4785,6.4717,6.4727,6.4683,6.4654,6.4646,6.457,6.4556,6.4559,6.4525,6.4503,6.4517,6.4466,6.447,6.4539,6.4553,6.4565,6.4572,6.4422,0,0,0,0,0,6.4947,6.4936,6.4868,6.4882,6.4866,6.48,6.4787,6.4745,6.4704,6.4687,6.4639,6.46,6.4577,6.4563,6.4538,6.4552,6.4536,6.4564,6.4576,6.4586,6.4589,6.4595,6.4608,6.4478,6.4478,6.4478,0,0,6.4992,6.4949,6.4946,6.49,6.4867,6.4857,6.4788,6.4779,6.477,6.4685,6.4677,6.4641,6.4591,6.4596,6.4596,6.4568,6.4622,6.4592,6.4601,6.4599,6.4602,6.4614,6.4625,6.4481,6.4481,6.448,0,0,6.507,6.5037,6.5045,6.5015,6.4968,6.4924,6.4927,6.4865,6.4839,6.4831,6.4768,6.4755,6.4717,6.4685,6.4664,6.4734,6.4685,6.4727,6.4787,6.4794,6.4804,6.4813,6.4838,6.4848,6.4731,6.4731,6.4732,0,6.5133,6.5116,6.5054,6.5051,6.5033,6.4959,6.4967,6.4939,6.4885,6.4874,6.4845,6.4797,6.4758,6.4755,6.4773,6.4758,6.4758,6.4734,6.4808,6.4816,6.4823,6.4847,6.4856,6.4737,6.4736,6.4736,6.4735,0,6.5195,6.5185,6.5197,6.5151,6.5134,6.5136,6.5074,6.5064,6.5023,6.4983,6.4975,6.4927,6.4892,6.4888,6.4846,6.4879,6.4864,6.4823,6.477,6.4842,6.4863,6.4871,6.4745,6.4743,6.4741,6.474,0,0,6.5329,6.5251,6.5257,6.5236,6.5179,6.5169,6.5168,6.5136,6.513,6.5095,6.5092,6.5063,6.5026,6.5002,6.4957,6.4963,6.5022,6.492,6.4918,6.4941,6.5056,6.5088,6.5099,6.4991,6.4992,6.4993,6.5061,0,6.5397,6.5393,6.5339,6.5349,6.5339,6.527,6.5269,6.5234,6.5197,6.5181,6.5139,6.512,6.5072,6.5057,6.5061,6.5015,6.5044,6.5009,6.4985,6.4985,6.5,6.511,6.5142,6.5208,6.5068,6.5069,6.507,0,6.5476,6.545,6.5461,6.5407,6.54,6.5401,6.5369,6.5355,6.5314,6.5286,6.5262,6.5212,6.5206,6.5158,6.5148,6.5125,6.5112,6.5089,6.509,6.5085,6.5032,6.5108,6.5228,6.5238,6.5082,6.5081,6.5081,0,6.5573,6.5541,6.5544,6.5528,6.5464,6.5466,6.544,6.5397,6.5382,6.5353,6.5343,6.5313,6.5296,6.5274,6.5217,6.5187,6.5214,6.516,6.519,6.5192,6.5197,6.5198,6.5318,6.519,6.519,6.519,6.519,0,6.5655,6.5664,6.5587,6.5589,6.5597,6.5535,6.5544,6.551,6.5473,6.5466,6.5404,6.5398,6.5324,6.5309,6.5265,6.5264,6.5256,6.5233,6.5221,6.5239,6.5242,6.5229,6.5223,6.5192,6.5192,6.5191,6.5191,0,6.5765,6.5714,6.5712,6.5654,6.5639,6.5648,6.5597,6.5596,6.5556,6.5548,6.5542,6.5479,6.5459,6.5401,6.5365,6.5335,6.5347,6.5324,6.5362,6.5354,6.5387,6.5385,6.5502,6.5515,6.538,6.5382,6.5383,0,6.5821,6.5827,6.577,6.5763,6.5739,6.5727,6.5713,6.5652,6.5639,6.5595,6.5599,6.5575,6.5552,6.5523,6.5473,6.5445,6.5421,6.5465,6.5417,6.5435,6.5422,6.5423,6.5423,6.5475,6.5477,6.5478,6.5479,0,6.5925,6.59,6.5883,6.5858,6.5844,6.582,6.5793,6.579,6.5721,6.571,6.5691,6.5674,6.564,6.5616,6.5582,6.5552,6.5504,6.5495,6.5501,6.5518,6.554,6.5529,6.539,6.5492,6.5491,6.549,6.5489,6.5489,6.6009,6.6012,6.5974,6.5957,6.5931,6.5908,6.5905,6.5866,6.5849,6.5819,6.5783,6.5768,6.5728,6.5677,6.5651,6.5638,6.5612,6.562,6.5622,6.5625,6.5633,6.5544,6.5631,6.5631,6.563,6.563,6.5629,0,6.6111,6.6083,6.6069,6.6035,6.6022,6.5982,6.595,6.5942,6.593,6.5898,6.5878,6.5857,6.5835,6.5784,6.5757,6.5756,6.5733,6.5751,6.575,6.5744,6.5657,6.5656,6.577,6.577,6.577,6.577,6.577,6.5769,6.6162,6.6165,6.6137,6.6126,6.6098,6.6085,6.6071,6.6049,6.6023,6.6003,6.5986,6.5954,6.5914,6.5884,6.5862,6.5847,6.584,6.5865,6.5843,6.5763,6.575,6.5737,6.5735,6.5864,6.5864,6.5931,6.5932,6.5932]}]]